sat.trackr.live / text

‹ back to catalog

STARLINK-34095

NORAD 63809 · 2025-092F

PAYLOAD ACTIVE UNKNOWN

§ Identity

Operator
Country
US
Launch date
2025-05-04
Launch site
AFETR
Launch vehicle
Mass (kg)
RCS (m²)

Purposes: comms

External: N2YO · Heavens-Above · Gunter

§ Orbital elements

Epoch: 2026-05-25T03:36:47.729088Z

Period
94.27 min
Inclination
43.0004°
Eccentricity
0.0001108
Mean motion
15.27597666 rev/d
Perigee alt
482.2 km
Apogee alt
483.8 km
Semi-major
6,861.1 km
B*
8.9685e-4
RAAN
101.1451°
Arg perigee
273.0321°
Mean anomaly
87.0404°
Rev number
6,030

§ Raw data

STARLINK-340951 63809U 25092F   26145.15055242  .00024513  00000+0  89685-3 0  99992 63809  43.0004 101.1451 0001108 273.0321  87.0404 15.27597666 60306

JSON: /api/v1/satellites/63809 · /tle

For live sub-satellite position, see the globe view (requires WebGL).

§ Visibility from observer

Set your observer location to see the next 7 days of passes ≥ 10°. The values pass through the URL so the page stays shareable.

No JS? Fill the form by hand. The geolocation button needs JavaScript.